Regional Weather Roundup
Issued by NWS

Home | Current Version | Previous Version | Graphics & Text | Print | Product List | Glossary On
Versions: 1 2 3 4 5 6 7 8 9 10 11 12 13 14 15 16 17 18 19 20 21 22 23 24 25 26 27 28 29 30 31 32 33 34 35 36 37 38 39 40 41 42 43 44 45 46 47 48 49 50
073
ASUS43 KLMK 052110
RWRKY
KENTUCKY REGIONAL WEATHER ROUNDUP
NATIONAL WEATHER SERVICE LOUISVILLE KY
400 PM EST FRI FEB 05 2016

NOTE "FAIR" INDICATES FEW OR NO CLOUDS BELOW 12,000 FEET
WITH NO SIGNIFICANT WEATHER AND/OR OBSTRUCTIONS TO VISIBILITY.

KYZ001>023-026-027-061>063-070>075-052200-
WESTERN AND SOUTH CENTRAL KENTUCKY

CITY           SKY/WX    TMP DP  RH WIND       PRES   REMARKS
PADUCAH        CLOUDY    48  21  34 W10       30.37S
HENDERSON      SUNNY     48  25  40 W9        30.36F
OWENSBORO      CLOUDY    48  25  41 W10       30.37F
HOPKINSVILLE   CLOUDY    50  19  29 W10       30.37F
BOWLING GREEN  CLOUDY    47  19  33 SW9       30.40S
GLASGOW        MOSUNNY   45  18  34 S6        30.40R
$$

KYZ024-025-028>034-038-045-046-053-052200-
NORTH CENTRAL KENTUCKY

CITY           SKY/WX    TMP DP  RH WIND       PRES   REMARKS
LOUISVILLE/SDF CLOUDY    47  18  31 SW10      30.36F
LOUISVILLE/LOU SUNNY     46  19  34 SW12G17   30.37S
FORT KNOX      CLOUDY    45  21  38 SW8       30.35S
$$

KYZ035>037-039>044-047>052-055>060-089>105-052200-
NORTHEAST KENTUCKY

CITY           SKY/WX    TMP DP  RH WIND       PRES   REMARKS
LEXINGTON      CLOUDY    42  17  36 VRB6      30.37S
COVINGTON      MOSUNNY   42  19  39 S12       30.34F
FRANKFORT      CLOUDY    43  14  31 W6        30.36S
$$

KYZ054-064>069-076>088-106>120-052200-
SOUTHEAST KENTUCKY

CITY           SKY/WX    TMP DP  RH WIND       PRES   REMARKS
JACKSON        SUNNY     41  15  35 VRB3      30.37R
LONDON         SUNNY     41  12  30 W3        30.39R
SOMERSET       CLOUDY    39  14  35 W3        30.41S
MIDDLESBORO    CLOUDY    43  13  30 CALM      30.38S
MONTICELLO     CLOUDY    43  14  31 NW8       30.41S
$$





USA.gov is the U.S. government's official web portal to all federal, state and local government web resources and services.